#timestamp,LO_Frequency,Hit,StdDev 
1512615615.2,286046996.1,N
1512615635.1,286046993.6,N
1512615636.0,286046993.6,N
1512615655.8,286046991.8,N
1512615675.6,286046993.5,N
1512615695.5,286046993.8,N
1512615715.3,286046992.3,N
1512615735.1,286046997.9,N
1512615755.9,286046999.1,N
1512615775.7,286046993.1,N
1512615795.6,286046994.8,N
1512615815.4,286046998.1,N
1512615835.2,286046999.7,N
1512615855.1,286046998.7,N
1512615856.0,286046998.7,N
1512615875.8,286046997.3,N
1512615895.6,286046996.2,N
1512615915.5,286046997.2,N
1512615935.3,286046998.3,N
1512615955.2,286046999.3,N
1512615975.9,286047001.1,N
1512615995.7,286046996.5,N
1512616015.6,286046998.6,N
1512616035.4,286046998.1,N
1512616055.2,286046996.7,N
1512616075.1,286046998.3,N
1512616076.0,286046998.3,N
1512616095.8,286046998.6,N
1512616115.7,286046995.7,N
1512616135.5,286046996.1,N
1512616155.3,286046999.3,N
1512616175.2,286047000.7,N
1512616195.0,286047000.4,N
1512616195.9,286047000.4,N
1512616215.8,286047002.0,N
1512616235.6,286047000.5,N
1512616255.4,286047000.8,N
1512616275.3,286047001.8,N
1512616295.1,286047003.9,N
1512616315.8,286047005.3,N
1512616335.7,286047006.9,N
1512616355.5,286047003.3,N
1512616375.4,286047002.1,N
1512616395.2,286047002.7,N
1512616415.0,286047001.6,N
1512616415.9,286047011.9,Y
1512616435.8,286047000.7,P
1512616455.6,286047002.2,P
1512616475.4,286046998.3,N
1512616495.3,286046997.1,N
1512616515.1,286046990.5,Y
1512616535.9,286046992.5,P
1512616555.7,286046989.4,N
1512616575.5,286046987.6,N
1512616595.4,286046991.4,N
1512616615.2,286046994.5,N
1512616635.1,286046989.7,N
1512616636.0,286046989.7,N
1512616655.8,286046983.8,Y
1512616675.6,286046996.1,P
1512616695.5,286046998.1,N
1512616715.3,286047001.1,N
1512616735.1,286047000.9,N
1512616755.9,286047001.2,N
1512616775.7,286047000.2,N
1512616795.6,286047003.2,N
1512616815.4,286047002.9,N
1512616835.2,286047004.9,N
1512616855.1,286047007.5,N
1512616856.0,286047007.5,N
1512616875.8,286047012.0,N
1512616895.7,286047007.4,N
1512616915.5,286047008.7,N
1512616935.3,286047007.1,N
1512616955.2,286047002.9,N
1512616975.9,286047001.7,N
1512616995.7,286047003.3,N
1512617015.6,286046998.1,N
1512617035.4,286047002.0,N
1512617055.3,286047007.3,N
1512617075.1,286047006.0,N
1512617076.0,286047006.0,N
1512617095.8,286047006.5,N
1512617115.7,286047005.3,N
1512617135.5,286047005.5,N
1512617155.3,286047002.9,N
1512617175.2,286047004.9,N
1512617195.0,286047006.6,N
1512617195.9,286047006.6,N
1512617215.8,286047006.9,N
1512617235.6,286047004.8,N
1512617255.4,286047005.7,N
1512617275.3,286047003.4,N
1512617295.1,286047001.2,N
1512617315.8,286047003.2,N
1512617335.7,286047006.0,N
1512617355.5,286047000.0,N
1512617375.4,286047003.9,N
1512617395.2,286047000.3,N
1512617415.0,286047007.6,N
1512617415.9,286047007.6,N
1512617435.8,286047006.7,N
1512617455.6,286047004.6,N
1512617475.4,286047001.8,N
1512617495.3,286047002.9,N
1512617515.1,286047004.9,N
1512617535.9,286047004.3,N
1512617555.7,286047007.4,Y
1512617575.5,286047003.8,P
1512617595.4,286047006.1,P
1512617615.2,286047007.4,P
1512617635.1,286047003.5,N
1512617636.0,286047003.5,N
1512617655.8,286047005.2,Y
1512617675.6,286047001.0,P
1512617695.5,286046997.5,N
1512617715.3,286046994.8,N
1512617735.1,286046995.7,N
1512617755.9,286046999.0,N
1512617775.7,286046995.6,N
1512617795.6,286046995.5,N
1512617815.4,286046995.6,N
1512617835.2,286046994.3,N
1512617855.1,286046993.4,N
1512617856.0,286046993.4,N
1512617875.8,286046994.6,N
1512617895.7,286046994.3,N
1512617915.5,286046993.7,N
1512617935.3,286046989.1,Y
1512617955.2,286046995.0,P
1512617975.0,286046993.4,P
1512617975.9,286046993.4,P
1512617995.8,286046995.2,Y
1512618015.6,286047004.8,P
1512618035.4,286047004.3,N
1512618055.3,286047003.1,N
1512618075.1,286047003.5,N
1512618095.8,286047004.5,N
1512618115.7,286047003.6,N
1512618135.5,286046999.8,N
1512618155.4,286047011.9,Y
1512618175.2,286047005.8,P
1512618195.0,286047002.0,N
1512618195.9,286047002.0,N
1512618215.8,286047004.9,Y
1512618235.6,286047004.7,P
1512618255.4,286047006.3,P
1512618275.3,286047005.9,P
1512618295.1,286047003.4,N
1512618315.9,286047000.4,N
1512618335.7,286046996.4,N
1512618355.5,286046994.9,N
1512618375.4,286046993.7,N
1512618395.2,286046996.9,N
1512618415.0,286047004.4,N
1512618415.9,286047004.4,N
1512618435.8,286047002.6,N
1512618455.6,286047002.8,N
1512618475.5,286047003.4,N
1512618495.3,286047004.3,N
1512618515.1,286047003.7,N
1512618535.9,286047006.4,N
1512618555.7,286047007.6,N
1512618575.5,286047005.1,N
1512618595.4,286047003.5,N
1512618615.2,286047006.0,N
1512618635.1,286047005.6,N
1512618636.0,286047005.6,N
1512618655.8,286047008.9,N
1512618675.6,286047005.7,N
1512618695.5,286047007.3,N
1512618715.3,286047005.1,N
1512618735.1,286047002.7,N
1512618755.9,286046998.5,N
1512618775.7,286046998.5,N
1512618795.6,286046997.1,N
1512618815.4,286047000.5,N
1512618835.2,286047007.0,N
1512618855.1,286047007.1,N
1512618856.0,286047007.1,N
1512618875.8,286047005.0,N
1512618895.6,286047003.9,N
1512618915.5,286046998.3,N
1512618935.3,286047004.3,N
1512618955.2,286047002.2,N
1512618975.9,286047005.9,N
1512618995.7,286047000.1,N
1512619015.6,286046999.6,N
1512619035.4,286047002.3,N
1512619055.2,286046998.0,N
1512619075.1,286046999.3,N
1512619076.0,286046999.3,N
1512619095.8,286047000.0,N
1512619115.7,286047004.2,N
1512619135.5,286047002.0,N
1512619155.3,286047011.9,Y
1512619175.2,286047000.7,P
1512619195.0,286047001.3,N
1512619195.9,286047001.3,N
